• In Netherlands
  • List of Countries
  • For 7 days
  • Water Temperature
  • Satellite Maps
  • Weather Map
  • Weather Widgets
  • user-avatar
    Login

    Hourly Weather Tirana

    Today, 18 October, Wednesday

    Time Temperature Precipitation Wind Pressure Humidity
    00:00 +21°C° 0 mm 1 mps 758 mmHg 50%
    01:00 +21°C° 0 mm 1 mps 758 mmHg 50%
    02:00 +20°C° 0 mm 1 mps 758 mmHg 50%
    03:00 +20°C° 0 mm 1 mps 758 mmHg 50%
    04:00 +20°C° 0 mm 1 mps 757 mmHg 50%
    05:00 +20°C° 0 mm 1 mps 757 mmHg 49%
    06:00 +21°C° 0 mm 1 mps 757 mmHg 49%
    07:00 +21°C° 0 mm 1 mps 757 mmHg 48%
    08:00 +23°C° 0 mm 1 mps 757 mmHg 43%
    09:00 +25°C° 0 mm 1 mps 757 mmHg 37%
    10:00 +28°C° 0 mm 1 mps 757 mmHg 31%
    11:00 +28°C° 0 mm 1 mps 757 mmHg 30%
    12:00 +29°C° 0 mm 2 mps 756 mmHg 29%
    13:00 +29°C° 0 mm 2 mps 756 mmHg 28%
    14:00 +28°C° 0 mm 2 mps 756 mmHg 33%
    15:00 +27°C° 0 mm 2 mps 755 mmHg 38%
    16:00 +26°C° 0 mm 1 mps 755 mmHg 43%
    17:00 +24°C° 0 mm 1 mps 755 mmHg 47%
    18:00 +21°C° 0 mm 0 mps 755 mmHg 52%
    19:00 +19°C° 0 mm 0 mps 756 mmHg 56%
    20:00 +19°C° 0 mm 0 mps 756 mmHg 55%
    21:00 +21°C° 0 mm 1 mps 756 mmHg 55%
    22:00 +20°C° 0 mm 1 mps 756 mmHg 54%
    23:00 +20°C° 0 mm 1 mps 756 mmHg 54%

    Tomorrow, 19 October, Thursday

    Time Temperature Precipitation Wind Pressure Humidity
    00:00 +20°C° 0 mm 1 mps 756 mmHg 53%
    01:00 +20°C° 0 mm 1 mps 756 mmHg 52%
    02:00 +19°C° 0 mm 1 mps 756 mmHg 52%
    03:00 +19°C° 0 mm 1 mps 755 mmHg 52%
    04:00 +19°C° 0 mm 1 mps 755 mmHg 52%
    05:00 +19°C° 0 mm 1 mps 755 mmHg 52%
    06:00 +19°C° 0 mm 1 mps 755 mmHg 52%
    07:00 +19°C° 0 mm 2 mps 755 mmHg 52%
    08:00 +21°C° 0 mm 2 mps 755 mmHg 47%
    09:00 +24°C° 0 mm 2 mps 755 mmHg 43%
    10:00 +26°C° 0 mm 2 mps 755 mmHg 38%
    11:00 +26°C° 0 mm 2 mps 755 mmHg 38%
    12:00 +27°C° 0 mm 2 mps 755 mmHg 37%
    13:00 +27°C° 0 mm 3 mps 755 mmHg 36%
    14:00 +26°C° 0 mm 3 mps 754 mmHg 41%
    15:00 +25°C° 0 mm 2 mps 754 mmHg 46%
    16:00 +24°C° 0 mm 2 mps 754 mmHg 51%
    17:00 +23°C° 0 mm 2 mps 754 mmHg 58%
    18:00 +20°C° 0 mm 2 mps 755 mmHg 66%
    19:00 +18°C° 0 mm 2 mps 755 mmHg 73%
    20:00 +18°C° 0 mm 2 mps 755 mmHg 73%
    21:00 +18°C° 0 mm 2 mps 755 mmHg 73%
    22:00 +17°C° 0 mm 2 mps 755 mmHg 73%
    23:00 +17°C° 0 mm 2 mps 755 mmHg 73%

    Day after tomorrow, 20 October, Friday

    Time Temperature Precipitation Wind Pressure Humidity
    00:00 +17°C° 0 mm 2 mps 755 mmHg 73%
    01:00 +17°C° 0 mm 2 mps 755 mmHg 72%
    02:00 +16°C° 0 mm 2 mps 755 mmHg 72%
    03:00 +16°C° 0 mm 2 mps 755 mmHg 71%
    04:00 +16°C° 0 mm 2 mps 755 mmHg 71%
    05:00 +16°C° 0 mm 2 mps 755 mmHg 68%
    06:00 +17°C° 0 mm 2 mps 755 mmHg 66%
    07:00 +17°C° 0 mm 3 mps 755 mmHg 64%
    08:00 +19°C° 0 mm 2 mps 755 mmHg 57%
    09:00 +21°C° 0 mm 2 mps 755 mmHg 50%
    10:00 +25°C° 0 mm 2 mps 755 mmHg 43%
    11:00 +25°C° 0 mm 2 mps 755 mmHg 41%
    12:00 +26°C° 0 mm 2 mps 755 mmHg 40%
    13:00 +26°C° 0 mm 2 mps 755 mmHg 38%
    14:00 +25°C° 0 mm 2 mps 755 mmHg 43%
    15:00 +24°C° 0 mm 2 mps 755 mmHg 48%
    16:00 +24°C° 0 mm 2 mps 755 mmHg 53%
    17:00 +21°C° 0 mm 2 mps 755 mmHg 59%
    18:00 +20°C° 0 mm 1 mps 755 mmHg 65%
    19:00 +19°C° 0 mm 1 mps 756 mmHg 72%
    20:00 +19°C° 0 mm 1 mps 756 mmHg 71%
    21:00 +18°C° 0 mm 1 mps 756 mmHg 71%
    22:00 +18°C° 0 mm 1 mps 756 mmHg 71%
    23:00 +18°C° 0 mm 1 mps 756 mmHg 71%

    21 October, Saturday

    Time Temperature Precipitation Wind Pressure Humidity
    00:00 +18°C° 0 mm 1 mps 756 mmHg 70%
    01:00 +16°C° 0 mm 1 mps 756 mmHg 70%
    02:00 +16°C° 0 mm 1 mps 756 mmHg 69%
    03:00 +16°C° 0 mm 1 mps 756 mmHg 69%
    04:00 +16°C° 0 mm 1 mps 756 mmHg 68%
    05:00 +16°C° 0 mm 1 mps 756 mmHg 66%
    06:00 +18°C° 0 mm 1 mps 756 mmHg 64%
    07:00 +18°C° 0 mm 1 mps 756 mmHg 62%
    08:00 +20°C° 0 mm 1 mps 756 mmHg 55%
    09:00 +22°C° 0 mm 1 mps 756 mmHg 48%
    10:00 +25°C° 0 mm 1 mps 757 mmHg 41%
    11:00 +25°C° 0 mm 2 mps 756 mmHg 40%
    12:00 +26°C° 0 mm 3 mps 756 mmHg 39%
    13:00 +26°C° 0 mm 3 mps 755 mmHg 38%
    14:00 +25°C° 0 mm 3 mps 755 mmHg 43%
    15:00 +23°C° 0 mm 4 mps 755 mmHg 47%
    16:00 +22°C° 0 mm 4 mps 755 mmHg 51%
    17:00 +21°C° 0 mm 3 mps 755 mmHg 57%
    18:00 +19°C° 0 mm 3 mps 756 mmHg 64%
    19:00 +17°C° 0 mm 2 mps 756 mmHg 70%
    20:00 +17°C° 0 mm 2 mps 756 mmHg 69%
    21:00 +17°C° 0 mm 2 mps 756 mmHg 69%
    22:00 +17°C° 0 mm 2 mps 756 mmHg 68%
    23:00 +16°C° 0 mm 2 mps 756 mmHg 67%

    22 October, Sunday

    Time Temperature Precipitation Wind Pressure Humidity
    00:00 +16°C° 0 mm 1 mps 756 mmHg 66%
    01:00 +16°C° 0 mm 1 mps 756 mmHg 66%
    02:00 +16°C° 0 mm 1 mps 756 mmHg 65%
    03:00 +16°C° 0 mm 1 mps 756 mmHg 64%
    04:00 +16°C° 0 mm 1 mps 756 mmHg 63%
    05:00 +16°C° 0 mm 1 mps 756 mmHg 62%
    06:00 +16°C° 0 mm 1 mps 755 mmHg 60%
    07:00 +18°C° 0 mm 1 mps 755 mmHg 58%
    08:00 +20°C° 0 mm 1 mps 755 mmHg 52%
    09:00 +22°C° 0 mm 1 mps 755 mmHg 46%
    10:00 +25°C° 0 mm 1 mps 755 mmHg 40%
    11:00 +25°C° 0 mm 1 mps 755 mmHg 38%
    12:00 +26°C° 0 mm 2 mps 754 mmHg 37%
    13:00 +26°C° 0 mm 2 mps 754 mmHg 36%
    14:00 +25°C° 0 mm 2 mps 753 mmHg 41%
    15:00 +24°C° 0 mm 1 mps 753 mmHg 45%
    16:00 +23°C° 0 mm 1 mps 753 mmHg 50%
    17:00 +22°C° 0 mm 1 mps 753 mmHg 56%
    18:00 +19°C° 0 mm 2 mps 753 mmHg 62%
    19:00 +17°C° 0 mm 2 mps 753 mmHg 68%
    20:00 +17°C° 0 mm 2 mps 752 mmHg 67%
    21:00 +17°C° 0 mm 3 mps 752 mmHg 66%
    22:00 +17°C° 0 mm 4 mps 752 mmHg 65%
    23:00 +17°C° 0 mm 4 mps 752 mmHg 64%

    23 October, Monday

    Time Temperature Precipitation Wind Pressure Humidity
    00:00 +17°C° 0 mm 4 mps 751 mmHg 64%
    01:00 +16°C° 0 mm 5 mps 751 mmHg 63%
    02:00 +16°C° 0.2 mm 5 mps 750 mmHg 64%
    03:00 +16°C° 0.2 mm 5 mps 750 mmHg 66%
    04:00 +16°C° 0.2 mm 5 mps 749 mmHg 67%
    05:00 +16°C° 1.1 mm 5 mps 749 mmHg 67%
    06:00 +16°C° 1.1 mm 5 mps 749 mmHg 66%
    07:00 +16°C° 1.1 mm 6 mps 749 mmHg 66%
    08:00 +17°C° 2.8 mm 6 mps 749 mmHg 67%
    09:00 +17°C° 2.8 mm 6 mps 749 mmHg 68%
    10:00 +17°C° 2.8 mm 6 mps 749 mmHg 70%
    11:00 +19°C° 2.3 mm 5 mps 749 mmHg 66%
    12:00 +19°C° 2.3 mm 4 mps 749 mmHg 63%
    13:00 +20°C° 2.3 mm 3 mps 749 mmHg 60%
    14:00 +20°C° 0.5 mm 4 mps 749 mmHg 61%
    15:00 +20°C° 0.5 mm 4 mps 749 mmHg 62%
    16:00 +19°C° 0.5 mm 5 mps 749 mmHg 63%
    17:00 +19°C° 0.1 mm 5 mps 750 mmHg 66%
    18:00 +17°C° 0.1 mm 5 mps 750 mmHg 69%
    19:00 +17°C° 0.1 mm 4 mps 750 mmHg 72%
    20:00 +16°C° 0 mm 5 mps 751 mmHg 73%
    21:00 +15°C° 0 mm 5 mps 751 mmHg 74%
    22:00 +15°C° 0 mm 5 mps 752 mmHg 75%
    23:00 +15°C° 0 mm 5 mps 752 mmHg 75%
    Show more